When you browse on this site, cookies collect data to enhance your experience and personalize the content and advertising you see.
Visit our Privacy Policy to learn more. By continuing to use the site, you agree to this use of cookies and data.
  • In France
  • List of Countries
  • For 7 days
  • Water Temperature
  • Satellite Maps
  • Weather Map
  • Weather Widgets
  • user-avatar
    Login

    Hourly Weather Bregenz

    Today, 26 June, Wednesday

    Time Temperature Precipitation Wind Pressure Humidity
    00:00 +17°C° 0 mm 2 mps 654 mmHg 60%
    01:00 +17°C° 0 mm 2 mps 654 mmHg 59%
    02:00 +17°C° 0 mm 2 mps 654 mmHg 59%
    03:00 +16°C° 0 mm 1 mps 654 mmHg 59%
    04:00 +16°C° 0 mm 1 mps 653 mmHg 59%
    05:00 +18°C° 0 mm 1 mps 654 mmHg 60%
    06:00 +19°C° 0 mm 1 mps 655 mmHg 60%
    07:00 +21°C° 0 mm 1 mps 656 mmHg 59%
    08:00 +23°C° 0 mm 1 mps 656 mmHg 55%
    09:00 +25°C° 0 mm 1 mps 657 mmHg 50%
    10:00 +27°C° 0 mm 1 mps 657 mmHg 46%
    11:00 +28°C° 0 mm 1 mps 657 mmHg 45%
    12:00 +29°C° 0 mm 1 mps 658 mmHg 43%
    13:00 +29°C° 0 mm 1 mps 658 mmHg 41%
    14:00 +29°C° 0 mm 1 mps 658 mmHg 42%
    15:00 +29°C° 0 mm 1 mps 657 mmHg 42%
    16:00 +29°C° 0 mm 1 mps 657 mmHg 43%
    17:00 +28°C° 0 mm 1 mps 657 mmHg 53%
    18:00 +26°C° 0 mm 1 mps 656 mmHg 63%
    19:00 +25°C° 0 mm 1 mps 656 mmHg 72%
    20:00 +23°C° 0 mm 1 mps 656 mmHg 74%
    21:00 +22°C° 0 mm 1 mps 655 mmHg 76%
    22:00 +20°C° 0 mm 1 mps 655 mmHg 78%
    23:00 +20°C° 0 mm 1 mps 655 mmHg 76%

    Tomorrow, 27 June, Thursday

    Time Temperature Precipitation Wind Pressure Humidity
    00:00 +19°C° 0 mm 1 mps 655 mmHg 75%
    01:00 +19°C° 0 mm 1 mps 655 mmHg 73%
    02:00 +18°C° 0 mm 1 mps 655 mmHg 72%
    03:00 +18°C° 0 mm 1 mps 654 mmHg 72%
    04:00 +18°C° 0 mm 1 mps 654 mmHg 71%
    05:00 +19°C° 0 mm 1 mps 654 mmHg 69%
    06:00 +20°C° 0 mm 1 mps 655 mmHg 68%
    07:00 +22°C° 0 mm 1 mps 655 mmHg 66%
    08:00 +24°C° 0 mm 1 mps 656 mmHg 61%
    09:00 +26°C° 0 mm 1 mps 656 mmHg 55%
    10:00 +28°C° 0 mm 1 mps 657 mmHg 50%
    11:00 +28°C° 0 mm 1 mps 657 mmHg 49%
    12:00 +28°C° 0 mm 2 mps 657 mmHg 48%
    13:00 +29°C° 0 mm 2 mps 656 mmHg 48%
    14:00 +29°C° 0 mm 2 mps 656 mmHg 50%
    15:00 +28°C° 0 mm 2 mps 656 mmHg 52%
    16:00 +28°C° 0 mm 3 mps 656 mmHg 54%
    17:00 +26°C° 0.8 mm 2 mps 655 mmHg 66%
    18:00 +25°C° 0.8 mm 2 mps 655 mmHg 77%
    19:00 +23°C° 0.8 mm 1 mps 654 mmHg 88%
    20:00 +21°C° 0.7 mm 1 mps 654 mmHg 90%
    21:00 +19°C° 0.7 mm 1 mps 654 mmHg 91%
    22:00 +16°C° 0.7 mm 1 mps 653 mmHg 93%
    23:00 +16°C° 0.1 mm 1 mps 653 mmHg 93%

    Day after tomorrow, 28 June, Friday

    Time Temperature Precipitation Wind Pressure Humidity
    00:00 +14°C° 0.1 mm 0 mps 653 mmHg 93%
    01:00 +13°C° 0.1 mm 0 mps 652 mmHg 93%
    02:00 +13°C° 0 mm 0 mps 652 mmHg 93%
    03:00 +13°C° 0 mm 0 mps 652 mmHg 93%
    04:00 +12°C° 0 mm 0 mps 652 mmHg 93%
    05:00 +13°C° 0 mm 0 mps 652 mmHg 92%
    06:00 +14°C° 0 mm 0 mps 652 mmHg 91%
    07:00 +15°C° 0 mm 0 mps 652 mmHg 90%
    08:00 +18°C° 0 mm 1 mps 652 mmHg 83%
    09:00 +20°C° 0 mm 1 mps 652 mmHg 76%
    10:00 +21°C° 0 mm 2 mps 653 mmHg 69%
    11:00 +21°C° 0 mm 2 mps 653 mmHg 64%
    12:00 +23°C° 0 mm 2 mps 653 mmHg 58%
    13:00 +24°C° 0 mm 2 mps 653 mmHg 52%
    14:00 +24°C° 0 mm 2 mps 653 mmHg 52%
    15:00 +24°C° 0 mm 3 mps 653 mmHg 52%
    16:00 +24°C° 0 mm 3 mps 652 mmHg 52%
    17:00 +21°C° 0 mm 2 mps 652 mmHg 60%
    18:00 +20°C° 0 mm 2 mps 652 mmHg 68%
    19:00 +19°C° 0 mm 2 mps 651 mmHg 76%
    20:00 +18°C° 0 mm 1 mps 651 mmHg 81%
    21:00 +15°C° 0 mm 1 mps 651 mmHg 87%
    22:00 +13°C° 0 mm 1 mps 650 mmHg 92%
    23:00 +13°C° 0 mm 1 mps 650 mmHg 92%

    29 June, Saturday

    Time Temperature Precipitation Wind Pressure Humidity
    00:00 +12°C° 0 mm 1 mps 650 mmHg 91%
    01:00 +12°C° 0 mm 1 mps 650 mmHg 91%
    02:00 +12°C° 0 mm 1 mps 649 mmHg 90%
    03:00 +11°C° 0 mm 1 mps 649 mmHg 90%
    04:00 +11°C° 0 mm 1 mps 649 mmHg 89%
    05:00 +13°C° 0 mm 1 mps 649 mmHg 84%
    06:00 +14°C° 0 mm 1 mps 650 mmHg 80%
    07:00 +16°C° 0 mm 1 mps 650 mmHg 75%
    08:00 +19°C° 0 mm 1 mps 651 mmHg 68%
    09:00 +21°C° 0 mm 1 mps 651 mmHg 62%
    10:00 +23°C° 0 mm 1 mps 652 mmHg 55%
    11:00 +24°C° 0 mm 1 mps 652 mmHg 52%
    12:00 +25°C° 0 mm 2 mps 652 mmHg 50%
    13:00 +26°C° 0 mm 2 mps 652 mmHg 47%
    14:00 +26°C° 0 mm 2 mps 652 mmHg 49%
    15:00 +26°C° 0 mm 2 mps 652 mmHg 50%
    16:00 +26°C° 0 mm 2 mps 652 mmHg 52%
    17:00 +25°C° 0 mm 1 mps 652 mmHg 60%
    18:00 +23°C° 0 mm 1 mps 651 mmHg 68%
    19:00 +22°C° 0 mm 1 mps 651 mmHg 77%
    20:00 +20°C° 0 mm 1 mps 651 mmHg 81%
    21:00 +19°C° 0 mm 1 mps 651 mmHg 85%
    22:00 +16°C° 0 mm 1 mps 650 mmHg 88%
    23:00 +16°C° 0 mm 1 mps 650 mmHg 87%

    30 June, Sunday

    Time Temperature Precipitation Wind Pressure Humidity
    00:00 +16°C° 0 mm 1 mps 650 mmHg 86%
    01:00 +15°C° 0 mm 1 mps 650 mmHg 85%
    02:00 +15°C° 0 mm 1 mps 650 mmHg 84%
    03:00 +15°C° 0 mm 1 mps 650 mmHg 84%
    04:00 +15°C° 0 mm 1 mps 650 mmHg 83%
    05:00 +16°C° 0 mm 1 mps 650 mmHg 80%
    06:00 +19°C° 0 mm 1 mps 651 mmHg 76%
    07:00 +20°C° 0 mm 1 mps 652 mmHg 72%
    08:00 +22°C° 0 mm 1 mps 652 mmHg 64%
    09:00 +24°C° 0 mm 1 mps 653 mmHg 55%
    10:00 +26°C° 0 mm 1 mps 654 mmHg 47%
    11:00 +27°C° 0 mm 1 mps 654 mmHg 43%
    12:00 +28°C° 0 mm 2 mps 654 mmHg 39%
    13:00 +29°C° 0 mm 2 mps 654 mmHg 36%
    14:00 +29°C° 0 mm 2 mps 654 mmHg 36%
    15:00 +29°C° 0 mm 2 mps 654 mmHg 36%
    16:00 +29°C° 0 mm 2 mps 654 mmHg 36%
    17:00 +27°C° 0 mm 1 mps 653 mmHg 45%
    18:00 +25°C° 0 mm 1 mps 653 mmHg 53%
    19:00 +22°C° 0 mm 0 mps 653 mmHg 61%
    20:00 +22°C° 0 mm 1 mps 652 mmHg 61%
    21:00 +20°C° 0 mm 1 mps 652 mmHg 61%
    22:00 +19°C° 0 mm 1 mps 652 mmHg 61%
    23:00 +18°C° 0 mm 1 mps 652 mmHg 60%

    1 July, Monday

    Time Temperature Precipitation Wind Pressure Humidity
    00:00 +17°C° 0 mm 2 mps 651 mmHg 59%
    01:00 +16°C° 0 mm 2 mps 651 mmHg 58%
    02:00 +16°C° 0 mm 2 mps 651 mmHg 57%
    03:00 +16°C° 0 mm 2 mps 650 mmHg 56%
    04:00 +16°C° 0 mm 2 mps 650 mmHg 55%
    05:00 +17°C° 0 mm 2 mps 650 mmHg 56%
    06:00 +19°C° 0 mm 1 mps 651 mmHg 56%
    07:00 +20°C° 0 mm 1 mps 651 mmHg 57%
    08:00 +22°C° 0.1 mm 1 mps 652 mmHg 57%
    09:00 +23°C° 0.1 mm 1 mps 652 mmHg 56%
    10:00 +24°C° 0.1 mm 1 mps 652 mmHg 56%
    11:00 +25°C° 0 mm 1 mps 653 mmHg 53%
    12:00 +26°C° 0 mm 1 mps 653 mmHg 50%
    13:00 +27°C° 0 mm 1 mps 653 mmHg 47%
    14:00 +27°C° 0.1 mm 2 mps 652 mmHg 50%
    15:00 +27°C° 0.1 mm 2 mps 652 mmHg 52%
    16:00 +27°C° 0.1 mm 2 mps 652 mmHg 55%
    17:00 +24°C° 1.3 mm 2 mps 651 mmHg 65%
    18:00 +21°C° 1.3 mm 3 mps 651 mmHg 75%
    19:00 +19°C° 1.3 mm 3 mps 650 mmHg 85%
    20:00 +17°C° 1.5 mm 2 mps 650 mmHg 87%
    21:00 +15°C° 1.5 mm 2 mps 650 mmHg 89%
    22:00 +14°C° 1.5 mm 1 mps 650 mmHg 92%
    23:00 +14°C° 0.7 mm 1 mps 650 mmHg 91%
    Show more